Weather History for Falfurrias, TX

Change the Weather History Date:

Friday, February 1, 2013

  Actual Average (KNQI) Record (KNQI)
Temperature  
Mean Temperature 64 °F -  
Max Temperature 79 °F 67 °F 84 °F (2014)
Min Temperature 48 °F 49 °F 64 °F (2014)
Degree Days  
Heating Degree Days 2    
Growing Degree Days 14 (Base 50)    
Moisture  
Dew Point 46 °F    
Average Humidity 57    
Maximum Humidity 89    
Minimum Humidity 21    
Precipitation  
Precipitation 0.00 in - - ()
Sea Level Pressure  
Sea Level Pressure 30.26 in    
Wind  
Wind Speed 4 mph (ESE)    
Max Wind Speed 16 mph    
Max Gust Speed 23 mph    
Visibility 10 miles    
Events      
Averages and records for this station are not official NWS values.
T = Trace of Precipitation, MM = Missing Value Source: NWS Daily Summary

Daily Weather History Graph

Daily Weather History Graph

Search for Another Location

Airport:

Trip Planner

Search our weather history database for the weather conditions in past years. The results will help you decide how hot, cold, wet, or windy it might be!

Date:

Astronomy

Feb. 01, 2013 Rise Set
Actual Time 7:18 AM CST 6:14 PM CST
Civil Twilight 6:53 AM CST 6:38 PM CST
Nautical Twilight 6:26 AM CST 7:06 PM CST
Astronomical Twilight 5:58 AM CST 7:34 PM CST
Moon 11:43 PM CST (2/1) 10:28 AM CST (2/1)
Length of Visible Light 11h 44m
Length of Day
10h 56m
Waning Gibbous, 70% of the Moon is Illuminated
Feb 1
Waning Gibbous
Feb 3
Last Quarter
Feb 10
New
Feb 17
First Quarter
Feb 25
Full

Hourly Weather History & Observations

Time (CST) Temp. Dew Point Humidity Pressure Visibility Wind Dir Wind Speed Gust Speed Precip Events Conditions
12:15 AM 56.1 °F 45.9 °F 68% 30.29 in 10.0 mi Calm Calm - N/A   Clear
12:35 AM 55.2 °F 46.0 °F 71% 30.27 in 10.0 mi ESE 3.5 mph - N/A   Clear
12:55 AM 55.2 °F 46.4 °F 72% 30.27 in 10.0 mi East 3.5 mph - N/A   Clear
1:15 AM 54.7 °F 46.4 °F 74% 30.27 in 10.0 mi Calm Calm - N/A   Clear
1:35 AM 53.8 °F 46.2 °F 76% 30.26 in 10.0 mi East 4.6 mph - N/A   Clear
1:55 AM 53.6 °F 46.8 °F 78% 30.26 in 10.0 mi Calm Calm - N/A   Clear
2:15 AM 52.9 °F 46.4 °F 79% 30.28 in 10.0 mi Calm Calm - N/A   Clear
2:35 AM 52.5 °F 46.2 °F 79% 30.28 in 10.0 mi NE 3.5 mph - N/A   Clear
2:55 AM 52.3 °F 47.3 °F 83% 30.27 in 10.0 mi East 3.5 mph - N/A   Clear
3:15 AM 52.3 °F 46.8 °F 81% 30.27 in 10.0 mi Calm Calm - N/A   Clear
3:55 AM 49.6 °F 44.4 °F 82% 30.27 in 10.0 mi Calm Calm - N/A   Clear
4:15 AM 49.5 °F 45.3 °F 86% 30.28 in 10.0 mi Calm Calm - N/A   Clear
4:35 AM 49.8 °F 46.0 °F 87% 30.28 in 10.0 mi Calm Calm - N/A   Clear
4:55 AM 49.3 °F 44.2 °F 83% 30.27 in 10.0 mi Calm Calm - N/A   Clear
5:15 AM 48.6 °F 45.3 °F 89% 30.28 in 10.0 mi Calm Calm - N/A   Clear
5:35 AM 50.4 °F 46.8 °F 87% 30.28 in 10.0 mi North 3.5 mph - N/A   Clear
5:55 AM 50.9 °F 47.3 °F 87% 30.28 in 10.0 mi Calm Calm - N/A   Clear
6:15 AM 50.5 °F 46.8 °F 87% 30.28 in 10.0 mi Calm Calm - N/A   Clear
6:35 AM 50.9 °F 46.9 °F 86% 30.29 in 10.0 mi Calm Calm - N/A   Clear
6:55 AM 50.4 °F 46.6 °F 87% 30.30 in 10.0 mi Calm Calm - N/A   Clear
7:15 AM 50.9 °F 47.5 °F 88% 30.31 in 10.0 mi Calm Calm - N/A   Clear
7:35 AM 50.7 °F 47.3 °F 88% 30.31 in 10.0 mi Calm Calm - N/A   Clear
7:55 AM 52.0 °F 48.2 °F 87% 30.31 in 10.0 mi Calm Calm - N/A   Clear
8:15 AM 54.3 °F 49.8 °F 85% 30.31 in 10.0 mi Calm Calm - N/A   Clear
8:35 AM 57.7 °F 51.6 °F 80% 30.31 in 10.0 mi Calm Calm - N/A   Clear
8:55 AM 61.2 °F 52.7 °F 74% 30.32 in 10.0 mi Calm Calm - N/A   Clear
9:15 AM 63.5 °F 53.1 °F 69% 30.33 in 10.0 mi SE 3.5 mph - N/A   Clear
9:35 AM 68.0 °F 53.6 °F 60% 30.34 in 10.0 mi SE 4.6 mph - N/A   Clear
9:55 AM 70.5 °F 51.6 °F 51% 30.33 in 10.0 mi SSE 10.4 mph - N/A   Clear
10:15 AM 72.0 °F 48.2 °F 43% 30.33 in 10.0 mi SE 10.4 mph - N/A   Clear
10:35 AM 73.4 °F 45.1 °F 36% 30.33 in 10.0 mi SE 9.2 mph - N/A   Clear
10:55 AM 74.1 °F 44.2 °F 34% 30.32 in 10.0 mi SSE 6.9 mph - N/A   Clear
11:15 AM 75.9 °F 40.5 °F 28% 30.32 in 10.0 mi SSE 4.6 mph - N/A   Clear
11:35 AM 76.1 °F 39.4 °F 27% 30.31 in 10.0 mi SSE 9.2 mph - N/A   Clear
11:55 AM 76.6 °F 38.1 °F 25% 30.30 in 10.0 mi SSE 6.9 mph 10.4 mph N/A   Clear
12:15 PM 77.9 °F 35.6 °F 22% 30.29 in 10.0 mi East 4.6 mph - N/A   Clear
12:35 PM 78.4 °F 35.6 °F 21% 30.28 in 10.0 mi ESE 11.5 mph 18.4 mph N/A   Clear
12:55 PM 77.5 °F 35.4 °F 22% 30.27 in 10.0 mi SE 8.1 mph - N/A   Clear
1:15 PM 79.0 °F 37.6 °F 23% 30.25 in 10.0 mi ESE 12.7 mph 18.4 mph N/A   Clear
1:35 PM 78.8 °F 37.2 °F 22% 30.24 in 10.0 mi SSE 5.8 mph - N/A   Clear
1:55 PM 79.3 °F 38.7 °F 23% 30.23 in 10.0 mi SE 8.1 mph - N/A   Clear
2:15 PM 78.6 °F 37.8 °F 23% 30.22 in 10.0 mi SE 10.4 mph 16.1 mph N/A   Clear
2:35 PM 78.3 °F 38.3 °F 24% 30.21 in 10.0 mi ESE 10.4 mph 19.6 mph N/A   Clear
2:55 PM 77.4 °F 38.5 °F 25% 30.20 in 10.0 mi ESE 13.8 mph 17.3 mph N/A   Mostly Cloudy
3:15 PM 77.4 °F 38.5 °F 25% 30.20 in 10.0 mi ESE 13.8 mph 18.4 mph N/A   Overcast
3:35 PM 76.5 °F 38.5 °F 25% 30.20 in 10.0 mi ESE 10.4 mph 17.3 mph N/A   Overcast
3:55 PM 76.5 °F 39.0 °F 26% 30.19 in 10.0 mi ESE 9.2 mph - N/A   Overcast
4:15 PM 76.5 °F 39.4 °F 26% 30.19 in 10.0 mi ESE 16.1 mph - N/A   Overcast
4:35 PM 76.1 °F 41.0 °F 28% 30.19 in 10.0 mi SE 11.5 mph - N/A   Mostly Cloudy
4:55 PM 74.5 °F 42.4 °F 32% 30.19 in 10.0 mi ESE 10.4 mph 18.4 mph N/A   Scattered Clouds
5:15 PM 73.4 °F 44.6 °F 36% 30.19 in 10.0 mi ESE 15.0 mph 23.0 mph N/A   Overcast
5:35 PM 72.0 °F 45.7 °F 39% 30.19 in 10.0 mi ESE 12.7 mph - N/A   Mostly Cloudy
5:55 PM 71.1 °F 47.1 °F 42% 30.20 in 10.0 mi ESE 12.7 mph 17.3 mph N/A   Overcast
6:15 PM 70.0 °F 47.3 °F 44% 30.20 in 10.0 mi ESE 11.5 mph 16.1 mph N/A   Overcast
6:35 PM 69.1 °F 48.2 °F 47% 30.20 in 10.0 mi ESE 10.4 mph - N/A   Overcast
6:55 PM 68.2 °F 49.1 °F 50% 30.20 in 10.0 mi ESE 9.2 mph - N/A   Mostly Cloudy
7:15 PM 67.5 °F 50.0 °F 53% 30.21 in 10.0 mi ESE 10.4 mph - N/A   Scattered Clouds
7:35 PM 66.6 °F 50.4 °F 56% 30.22 in 10.0 mi ESE 6.9 mph - N/A   Clear
8:15 PM 64.4 °F 51.1 °F 62% 30.22 in 10.0 mi ESE 4.6 mph - N/A   Clear
8:35 PM 63.3 °F 51.1 °F 64% 30.23 in 10.0 mi ESE 3.5 mph - N/A   Scattered Clouds
8:55 PM 62.6 °F 51.1 °F 66% 30.23 in 10.0 mi East 4.6 mph - N/A   Mostly Cloudy
9:15 PM 62.2 °F 51.1 °F 67% 30.23 in 10.0 mi ESE 4.6 mph - N/A   Mostly Cloudy
9:55 PM 62.1 °F 51.8 °F 69% 30.23 in 10.0 mi East 4.6 mph - N/A   Overcast
10:15 PM 63.0 °F 52.0 °F 67% 30.23 in 10.0 mi ESE 3.5 mph - N/A   Overcast
10:35 PM 63.0 °F 52.0 °F 67% 30.23 in 10.0 mi East 4.6 mph - N/A   Overcast
10:55 PM 63.5 °F 52.5 °F 67% 30.22 in 10.0 mi East 3.5 mph - N/A   Overcast
11:15 PM 63.9 °F 52.9 °F 67% 30.22 in 10.0 mi ESE 3.5 mph - N/A   Overcast
11:35 PM 63.9 °F 53.2 °F 68% 30.21 in 10.0 mi SE 4.6 mph - N/A   Overcast
11:55 PM 64.4 °F 53.8 °F 68% 30.21 in 10.0 mi ESE 3.5 mph - N/A   Overcast